User: anonymous   Login
Location: Unspecified
(0.0000°N, 0.0000°E)
Time: 14:35:36
(UTC+01:00)
Language:

Cosmos 1703 Rocket - Orbit

View from above orbital plane
View from above orbital plane
View from above satellite
View from above satellite

Ground track
Ground track

The orbit data is extracted from the following two-line orbital elements,

1 16263U 85108B   16036.89435821  .00000234  00000-0  25888-4 0  9990
2 16263  82.5017 220.7964 0020064 181.7226 307.2481 14.82878377630685
Epoch (UTC): 05 February 2016 21:27:52
Eccentricity: 0.0020064
inclination: 82.5017°
perigee height: 606 km
apogee height: 634 km
right ascension of ascending node: 220.7964°
argument of perigee: 181.7226°
revolutions per day: 14.82878377
mean anomaly at epoch: 307.2481°
orbit number at epoch: 63068

The dashed part of the orbit path shows where the satellite is in the earth's shadow,  

DLR